Temp
18 18 18 18 18 18 19 18 18 18 18 18 18 19 19 19 19 19 18 17 17 17 16 16 16 16 16 16 16 17 16 16 16 16 16 16 16 16 16 16 16 16 16
19 18 18 18 18 18 18 17 17 17 18 18 18 18 19 19 18 18 19 17 17 17 17 17 16 16 17 17 17 16 16 16 16 17 16 16 16 16 16 16 16 16 16
19 19 18 18 18 18 18 17 17 18 18 19 18 19 19 18 18 18 19 19 18 18 17 17 17 17 17 17 16 16 16 17 17 16 17 17 16 16 16 16 16 16 16
19 19 18 18 18 18 18 17 17 18 19 19 18 18 19 18 18 18 18 18 18 18 18 17 17 17 17 17 16 16 16 17 16 16 16 17 17 16 16 16 16 16 16
19 19 18 19 18 18 18 17 18 18 19 19 19 19 19 18 18 19 18 18 18 18 18 18 17 17 17 17 16 16 16 16 16 16 16 16 17 16 16 16 16 16 16
20 19 18 18 18 19 18 18 18 18 18 18 19 19 19 18 19 19 19 19 18 18 18 17 17 17 17 17 17 16 16 16 16 16 16 16 16 16 16 16 16 16 16
20 20 18 19 18 18 17 17 18 17 18 18 19 19 18 18 18 19 19 19 18 18 18 17 18 18 17 16 16 16 17 17 17 16 16 16 16 16 15 16 16 16 16
20 20 19 19 18 19 18 18 18 18 18 18 19 20 20 19 19 19 19 19 18 18 18 17 17 16 17 16 16 17 17 17 17 16 16 16 16 16 16 16 16 16 16
20 20 19 19 18 18 19 18 18 18 19 18 18 19 20 22 20 19 18 19 18 18 18 17 17 16 16 16 16 16 16 16 16 16 16 16 16 16 16 16 16 16 16
20 20 19 19 19 19 18 18 17 18 18 19 18 18 18 19 21 20 19 18 18 18 17 18 17 16 16 17 16 16 16 16 16 16 16 16 16 16 16 16 16 16 16
20 19 20 20 20 19 19 18 18 18 17 19 19 18 18 18 18 20 21 19 18 18 18 17 18 18 16 16 16 16 16 16 16 15 15 15 15 15 15 15 15 15 15
19 20 19 20 20 19 19 18 19 19 18 18 19 19 19 19 20 19 20 20 20 19 18 18 17 17 17 17 16 16 16 16 16 16 15 15 15 15 14 14 14 14 14
20 20 20 20 19 20 20 19 19 19 19 19 20 18 19 19 19 19 19 20 20 19 18 18 18 17 17 17 17 16 16 16 16 16 15 15 15 15 14 14 14 14 14
21 20 19 20 20 20 20 20 19 19 19 20 20 20 19 18 18 18 19 20 20 19 19 18 18 18 17 17 17 16 16 16 16 16 15 15 15 15 15 15 14 14 14
21 20 19 21 20 21 20 20 19 20 19 21 21 21 20 19 18 18 18 19 19 21 20 19 18 18 17 17 16 17 17 16 16 16 16 15 15 15 15 15 15 15 14
21 20 19 20 20 20 21 20 20 20 20 20 19 20 21 18 18 18 18 18 18 19 20 20 18 18 17 17 16 16 16 16 16 16 16 15 15 15 15 15 14 14 14
22 22 21 21 19 19 21 21 20 19 20 20 20 19 21 20 18 18 18 18 18 18 19 19 18 17 17 17 16 16 15 15 16 15 15 15 15 15 15 15 14 14 14
23 22 22 21 21 19 20 21 21 19 20 20 20 20 20 20 20 19 17 18 18 18 18 18 18 17 16 16 16 16 16 16 16 16 15 15 15 15 15 14 14 14 14
24 23 22 22 21 21 20 21 21 21 21 21 20 20 20 20 20 18 20 18 17 16 17 17 18 17 17 16 15 15 14 15 15 15 15 15 15 15 14 14 14 14 14
24 24 23 23 22 21 21 21 22 21 21 21 21 20 20 20 20 20 20 20 18 17 16 16 17 17 17 16 15 16 16 15 15 15 15 14 14 14 14 14 14 13 13
25 25 24 23 23 22 20 22 22 22 21 21 21 21 20 20 20 20 19 19 17 17 17 17 17 17 17 17 16 16 15 15 16 15 14 14 13 13 13 13 13 13 12
26 25 25 24 24 23 22 21 23 22 22 22 21 21 20 20 20 19 19 18 18 17 16 17 17 18 17 16 15 15 15 16 16 15 14 14 14 14 14 14 14 13 12
24 26 25 25 24 24 23 23 23 23 22 22 22 20 19 19 20 20 19 18 17 17 17 15 16 16 17 15 15 14 14 14 14 15 13 14 15 15 14 14 13 12 12
23 23 25 25 25 24 24 24 23 23 22 21 21 21 21 20 19 20 20 19 18 17 17 16 16 15 15 14 15 14 13 13 13 14 13 13 14 14 14 13 12 12 11
21 19 19 20 23 24 24 24 23 23 22 21 21 21 20 20 19 20 19 18 18 18 17 17 15 15 15 15 14 13 14 13 14 15 14 13 13 13 13 12 12 11 11
19 19 19 19 20 22 21 22 24 23 22 21 19 20 21 21 20 20 19 18 18 17 16 16 15 15 15 15 14 14 13 14 15 15 14 13 13 13 13 13 12 12 11
Height
1592 1593 1593 1595 1594 1595 1595 1594 1595 1594 1593 1593 1594 1595 1594 1594 1594 1594 1594 1592 1592 1592 1593 1593 1594 1595 1596 1597 1597 1598 1599 1600 1600 1601 1601 1602 1602 1603 1603 1603 1603 1603 1603
1591 1594 1594 1595 1596 1595 1595 1593 1593 1593 1593 1593 1594 1595 1595 1594 1594 1594 1594 1593 1593 1592 1592 1593 1594 1595 1595 1596 1597 1598 1599 1600 1600 1601 1601 1601 1602 1602 1602 1603 1603 1603 1603
1591 1592 1593 1594 1595 1595 1592 1592 1593 1593 1593 1594 1594 1595 1595 1594 1594 1595 1595 1595 1593 1593 1592 1593 1593 1594 1594 1595 1596 1597 1598 1599 1599 1599 1600 1601 1601 1601 1602 1602 1602 1602 1603
1589 1591 1592 1593 1594 1592 1592 1593 1593 1593 1594 1594 1594 1595 1594 1594 1594 1595 1595 1595 1596 1594 1594 1594 1593 1593 1593 1594 1595 1596 1597 1598 1598 1599 1599 1599 1600 1601 1601 1602 1602 1602 1601
1588 1590 1592 1593 1592 1593 1593 1593 1593 1593 1594 1594 1594 1594 1595 1594 1593 1594 1595 1595 1595 1596 1596 1595 1594 1594 1594 1594 1594 1595 1595 1596 1596 1597 1598 1598 1599 1599 1600 1600 1601 1601 1601
1587 1588 1591 1590 1591 1593 1593 1593 1592 1592 1593 1593 1593 1593 1594 1595 1595 1596 1595 1595 1595 1595 1596 1595 1595 1593 1594 1593 1593 1593 1593 1594 1595 1595 1595 1596 1596 1597 1598 1598 1598 1598 1598
1585 1586 1589 1589 1590 1590 1590 1590 1591 1591 1592 1591 1592 1593 1594 1595 1596 1596 1596 1596 1596 1596 1596 1596 1596 1596 1592 1593 1593 1593 1593 1593 1594 1594 1594 1594 1594 1594 1594 1595 1595 1595 1595
1582 1584 1586 1588 1589 1591 1588 1589 1590 1592 1592 1591 1592 1592 1593 1595 1595 1596 1597 1597 1597 1597 1596 1596 1596 1595 1595 1594 1594 1593 1593 1593 1593 1593 1593 1593 1593 1592 1592 1592 1593 1593 1593
1579 1581 1583 1585 1586 1588 1589 1588 1588 1590 1591 1591 1591 1592 1592 1589 1593 1595 1596 1597 1597 1598 1598 1597 1597 1596 1596 1596 1594 1592 1592 1592 1593 1593 1593 1593 1592 1591 1590 1590 1590 1590 1590
1577 1579 1581 1581 1583 1586 1587 1586 1587 1589 1589 1590 1590 1590 1590 1591 1591 1591 1594 1595 1596 1596 1597 1598 1598 1597 1596 1598 1596 1595 1594 1594 1594 1594 1594 1594 1593 1592 1591 1590 1589 1588 1588
1573 1576 1578 1579 1581 1582 1583 1584 1584 1585 1587 1589 1589 1589 1589 1591 1592 1591 1590 1593 1595 1596 1596 1597 1597 1596 1595 1597 1597 1597 1597 1596 1595 1594 1594 1594 1593 1593 1591 1590 1589 1588 1587
1570 1571 1573 1575 1578 1580 1581 1581 1582 1583 1584 1585 1587 1588 1589 1590 1590 1591 1591 1591 1592 1593 1595 1595 1595 1595 1597 1596 1597 1597 1596 1596 1596 1596 1595 1593 1592 1592 1592 1591 1590 1589 1588
1567 1568 1567 1570 1574 1576 1578 1579 1580 1581 1581 1583 1583 1586 1588 1589 1589 1590 1590 1591 1592 1593 1592 1592 1593 1592 1593 1594 1594 1593 1593 1594 1594 1593 1592 1592 1591 1590 1590 1590 1590 1589 1587
1561 1564 1563 1566 1569 1572 1574 1576 1577 1578 1578 1580 1581 1582 1586 1586 1587 1588 1590 1591 1591 1589 1589 1589 1590 1591 1590 1588 1589 1588 1590 1591 1591 1591 1591 1591 1591 1590 1588 1587 1586 1586 1585
1557 1558 1559 1561 1564 1567 1569 1572 1574 1574 1575 1577 1578 1579 1581 1584 1585 1586 1587 1588 1588 1586 1585 1584 1587 1587 1588 1588 1587 1587 1587 1586 1586 1588 1589 1588 1587 1586 1585 1584 1583 1582 1581
1549 1553 1554 1557 1559 1562 1565 1567 1569 1570 1571 1573 1574 1575 1577 1580 1581 1583 1585 1585 1584 1583 1583 1585 1586 1586 1586 1586 1586 1586 1587 1584 1584 1584 1584 1585 1586 1585 1584 1582 1580 1578 1576
1542 1545 1547 1551 1554 1556 1559 1562 1565 1566 1567 1569 1570 1571 1573 1574 1578 1580 1581 1580 1579 1581 1583 1583 1582 1582 1581 1581 1582 1581 1582 1582 1583 1580 1580 1581 1582 1581 1579 1577 1576 1575 1572
1534 1537 1541 1544 1547 1550 1552 1555 1558 1560 1561 1563 1565 1567 1568 1570 1572 1575 1575 1574 1575 1579 1580 1579 1581 1580 1578 1578 1576 1576 1579 1580 1579 1579 1579 1577 1574 1573 1572 1571 1570 1569 1567
1524 1529 1532 1535 1538 1541 1545 1548 1551 1554 1555 1557 1559 1561 1564 1565 1566 1568 1568 1571 1572 1572 1573 1575 1576 1576 1576 1577 1577 1576 1574 1574 1575 1573 1569 1569 1568 1566 1565 1563 1562 1562 1561
1514 1519 1523 1527 1530 1534 1537 1540 1543 1546 1548 1550 1553 1555 1556 1558 1560 1562 1563 1565 1568 1569 1571 1571 1571 1573 1573 1573 1573 1575 1574 1570 1570 1570 1567 1564 1563 1561 1559 1558 1556 1555 1555
1504 1510 1514 1518 1522 1526 1528 1530 1533 1537 1540 1543 1545 1547 1549 1552 1554 1556 1559 1560 1562 1563 1567 1566 1567 1567 1568 1569 1570 1570 1567 1568 1568 1563 1562 1562 1560 1555 1553 1552 1552 1549 1549
1493 1499 1502 1506 1510 1513 1516 1520 1524 1528 1530 1533 1536 1539 1543 1544 1547 1549 1552 1554 1555 1557 1558 1562 1563 1563 1564 1563 1565 1564 1563 1563 1563 1562 1558 1558 1556 1554 1553 1551 1548 1547 1545
1482 1485 1489 1494 1497 1500 1504 1507 1511 1516 1519 1524 1528 1531 1533 1535 1537 1540 1543 1546 1547 1547 1550 1553 1555 1557 1558 1556 1556 1557 1558 1557 1557 1558 1552 1552 1554 1553 1551 1552 1545 1542 1540
1469 1474 1478 1482 1487 1490 1495 1499 1505 1510 1513 1515 1518 1521 1523 1525 1526 1532 1534 1536 1538 1540 1541 1545 1547 1550 1551 1551 1550 1550 1551 1551 1551 1551 1552 1553 1553 1552 1549 1544 1543 1538 1535
1461 1466 1473 1477 1479 1482 1485 1489 1495 1499 1501 1503 1505 1509 1513 1516 1518 1522 1525 1527 1530 1532 1534 1538 1541 1543 1544 1545 1545 1547 1547 1547 1548 1548 1545 1548 1545 1543 1542 1542 1539 1534 1531
1452 1458 1460 1463 1467 1471 1478 1484 1488 1491 1491 1493 1494 1496 1500 1504 1509 1515 1518 1520 1520 1523 1525 1528 1532 1535 1538 1539 1540 1541 1543 1544 1545 1545 1542 1544 1544 1542 1538 1535 1533 1532 1528
Wind_Speed
3 2 2 2 3 2 1 1 2 2 1 1 3 5 4 3 2 3 1 5 5 3 5 7 7 5 5 4 3 3 4 4 4 4 4 4 3 2 3 3 4 3 3
5 2 1 1 0 2 2 2 1 3 3 3 2 5 4 3 4 5 3 3 7 6 3 4 7 5 4 5 4 4 2 4 2 3 5 5 5 4 4 4 4 5 5
6 4 3 2 1 3 3 3 2 4 3 4 5 4 3 5 5 6 6 3 4 7 5 3 3 4 4 4 6 4 5 3 4 4 4 5 6 6 6 5 5 5 6
6 5 3 1 2 3 2 2 1 1 2 1 3 3 2 4 8 6 4 3 4 1 4 6 5 3 3 4 5 6 6 6 7 7 7 4 5 6 7 7 7 7 7
9 6 5 3 2 1 3 1 3 2 1 1 1 1 2 2 6 4 3 3 2 4 3 2 5 5 4 2 3 5 6 7 9 8 8 7 8 9 7 7 7 7 8
12 9 7 8 2 2 1 2 1 0 1 1 2 1 6 6 5 4 5 4 3 3 2 2 1 1 1 2 2 3 4 4 6 8 9 7 9 10 9 10 10 10 11
13 12 9 10 4 4 2 0 2 2 1 3 6 7 5 4 5 4 5 4 4 3 2 2 3 4 2 1 3 1 1 1 3 5 6 5 7 7 7 7 9 10 11
16 14 11 11 8 4 3 1 1 0 1 4 5 5 7 5 5 4 4 4 5 5 4 4 3 4 3 1 3 1 1 1 1 1 1 2 3 4 5 6 6 7 9
16 14 11 10 9 4 5 3 1 3 1 4 8 3 4 3 7 5 4 4 3 3 3 5 5 4 5 3 4 4 3 4 5 5 5 4 4 4 4 4 5 5 5
18 16 14 11 10 7 8 4 3 4 4 5 6 6 6 4 5 7 7 7 6 4 4 3 2 3 4 3 4 4 7 8 6 6 5 6 6 5 4 4 4 5 5
21 17 16 16 14 10 10 9 6 3 6 7 6 6 6 7 7 5 6 7 8 8 6 4 4 3 3 4 2 1 3 3 2 3 5 7 7 6 5 4 3 3 4
19 23 19 18 17 15 12 9 8 7 7 7 8 8 6 5 4 5 5 5 7 7 9 9 8 7 7 7 7 9 5 4 4 5 6 7 8 6 6 7 7 6 6
20 21 25 23 18 18 15 13 13 11 10 10 10 9 8 7 6 5 5 4 4 5 7 9 9 9 9 9 10 13 10 9 9 9 9 10 10 9 9 10 10 10 10
19 20 23 25 23 20 18 16 15 13 13 13 12 11 9 9 8 7 5 4 3 6 6 7 7 7 8 9 11 14 13 14 13 13 13 13 12 11 11 12 13 14 15
20 20 21 24 24 23 21 19 16 17 17 15 15 14 13 11 10 9 8 6 7 7 7 8 8 9 7 7 8 7 8 12 11 13 14 14 12 13 15 16 16 16 17
28 22 23 23 25 25 24 23 20 21 21 19 17 18 16 13 13 11 10 9 10 11 10 6 6 8 7 7 8 8 7 10 11 12 13 12 14 15 17 20 20 19 21
36 31 30 26 27 27 28 27 24 22 24 23 23 22 20 18 14 13 12 12 13 12 11 8 9 11 11 10 9 10 9 9 10 13 12 12 14 17 18 18 18 19 19
41 38 35 32 31 29 30 32 30 26 28 27 26 26 24 21 20 17 15 18 15 12 12 13 10 11 11 12 14 14 12 11 11 14 16 15 17 19 18 18 18 19 20
41 40 40 39 35 35 34 35 34 33 32 30 28 27 25 23 23 19 20 17 14 15 14 13 13 11 12 11 12 14 13 13 12 15 17 18 18 20 19 18 17 18 20
45 43 42 41 39 36 37 37 38 38 36 34 32 30 28 27 25 22 23 21 19 16 15 14 15 15 13 13 13 12 14 12 12 14 17 18 20 20 20 18 19 20 20
46 45 44 43 42 41 37 42 42 42 41 38 35 34 33 30 29 26 24 22 21 20 18 19 17 17 16 14 15 11 15 15 16 18 15 15 18 16 16 16 20 20 17
49 47 49 48 47 45 43 42 43 44 45 44 41 36 34 33 32 29 27 26 25 22 23 21 20 19 17 15 15 14 12 14 15 13 16 12 12 14 15 17 19 21 26
51 51 50 52 53 51 49 46 45 45 47 47 44 38 34 32 34 31 30 29 28 27 24 22 24 22 18 19 17 15 15 16 14 14 17 16 13 17 18 18 19 20 17
50 51 52 53 55 54 52 49 47 44 45 46 44 41 41 38 36 32 31 29 31 32 30 28 28 22 22 18 20 17 16 15 13 13 13 13 13 15 15 13 19 22 24
41 40 39 44 53 56 54 51 49 47 47 49 50 45 41 40 39 33 31 28 29 30 30 27 25 26 25 21 19 13 14 10 11 11 10 11 9 12 14 16 14 18 21
34 33 37 40 43 50 51 53 51 49 48 48 45 48 48 45 42 35 32 30 31 31 28 28 27 28 26 24 21 20 13 12 12 11 11 11 12 13 15 14 10 15 16
Wind_Direction
182 136 156 126 136 138 46 31 10 13 63 355 77 49 42 65 65 118 148 70 65 113 176 173 184 202 198 192 180 172 196 206 213 221 219 231 225 277 283 295 291 289 315
185 171 186 167 177 234 268 294 24 35 16 26 137 60 78 54 40 146 132 69 61 62 106 182 199 190 197 199 206 221 230 209 221 244 251 257 247 247 271 286 287 293 299
207 189 215 142 256 278 297 298 9 5 44 63 91 62 70 81 50 121 120 116 27 54 73 100 171 204 210 205 214 224 231 246 249 244 244 262 261 265 270 272 273 284 292
210 232 264 274 264 314 344 302 357 30 19 114 112 69 70 100 88 99 122 135 146 105 43 71 100 139 182 217 227 237 233 234 256 264 266 255 268 276 275 270 278 285 287
224 244 264 298 298 12 316 116 34 33 44 83 53 24 92 109 97 92 94 124 163 139 155 7 82 100 108 168 222 241 244 240 247 255 263 270 276 270 272 284 288 292 292
239 254 259 255 260 285 302 114 131 5 156 226 293 159 143 123 124 99 72 106 153 131 169 191 330 151 33 76 185 221 242 245 251 253 258 256 257 267 279 278 276 277 277
237 248 247 255 236 254 245 155 23 357 347 314 126 126 137 136 144 119 100 98 110 152 171 226 163 203 268 92 88 88 163 251 257 261 270 273 274 273 270 268 268 271 277
240 247 248 236 236 247 290 280 138 152 331 155 159 153 149 144 159 148 139 116 108 106 86 98 134 152 115 118 293 342 52 98 126 176 280 293 279 278 276 274 274 277 281
229 231 237 238 238 222 269 279 267 172 227 180 165 193 165 157 167 186 188 175 143 112 102 84 103 126 137 158 96 78 96 108 103 93 78 47 15 347 328 315 308 297 285
223 230 240 242 234 229 237 269 243 206 176 191 194 211 207 168 219 170 211 212 205 197 178 121 98 118 130 115 127 117 97 107 99 90 63 42 33 24 359 337 320 308 302
225 229 237 239 242 242 250 234 272 240 220 193 200 209 221 226 237 248 217 207 226 226 234 215 217 223 204 185 230 151 83 99 57 29 19 14 11 17 25 21 7 336 311
228 226 228 233 241 236 241 251 258 253 214 215 205 208 210 210 237 233 247 249 243 225 234 239 241 242 242 248 233 237 256 269 298 323 331 333 337 335 340 345 346 344 333
221 227 228 228 231 231 237 248 256 251 239 225 215 216 223 224 227 227 241 252 253 240 250 244 246 244 241 250 246 248 248 257 270 279 289 302 307 309 307 309 308 309 308
223 221 230 224 225 229 237 247 250 243 232 230 228 218 223 229 229 227 228 238 233 239 238 230 245 236 244 243 236 249 246 262 264 270 274 288 294 296 297 298 296 294 293
222 221 222 221 221 228 233 238 236 242 233 232 234 231 227 226 228 227 231 231 238 258 249 237 234 238 234 249 244 251 252 252 265 270 272 274 279 289 293 291 289 293 299
226 220 225 222 221 225 228 234 235 238 239 237 231 235 231 223 228 226 228 234 237 240 257 255 257 238 236 231 247 240 241 261 264 265 262 269 280 287 296 292 287 286 292
236 229 234 227 222 223 227 233 232 229 239 239 238 236 237 232 222 227 228 230 236 238 245 255 237 249 250 238 236 241 244 253 268 276 262 272 286 297 300 298 290 291 293
236 235 233 233 228 223 227 233 236 231 239 241 242 241 243 238 238 223 229 233 234 237 235 244 245 248 257 254 247 250 247 258 259 271 274 284 293 297 301 299 293 296 297
231 232 232 232 232 228 229 234 236 237 240 244 244 244 242 238 240 230 240 236 238 237 247 238 244 248 243 250 259 254 247 262 256 265 277 289 295 301 300 290 290 292 296
231 230 231 232 234 233 231 233 235 236 238 241 243 242 240 239 241 242 246 247 236 234 243 241 245 246 250 249 247 254 264 269 264 266 277 283 289 296 298 290 289 290 292
235 233 232 231 233 233 231 234 236 236 236 239 241 242 241 241 245 246 247 250 247 245 238 247 246 246 244 247 252 263 258 263 267 282 280 283 287 288 294 298 302 298 290
236 234 234 232 231 232 230 232 235 235 237 238 240 241 239 244 246 247 250 250 252 246 242 240 247 248 248 245 251 256 269 260 269 278 286 297 280 289 289 289 280 276 285
237 235 233 234 232 232 233 235 235 234 237 239 239 239 237 240 247 247 248 248 245 252 248 241 239 243 249 249 244 256 250 252 264 273 279 284 287 287 289 290 287 286 282
236 235 235 233 234 234 235 235 237 237 239 239 239 240 242 241 244 246 250 248 245 246 246 244 243 243 249 247 255 254 246 252 273 277 273 288 295 292 290 290 295 296 296
234 231 233 235 238 239 237 235 235 236 237 239 241 240 239 242 242 246 247 247 246 246 244 245 245 241 243 249 251 236 244 254 268 274 269 281 287 286 292 296 292 291 299
228 225 228 233 236 240 241 244 240 237 237 235 238 239 241 242 247 246 245 243 238 239 239 239 238 234 240 246 249 239 239 256 267 280 266 256 291 296 298 291 281 297 299